Location: ????
(32.1228°N, 34.8377°E)
Time: 00:55:21
(UTC+00:00)

SL-16 R/B - Pass Details

Date: 21 September 2020
Orbit: 842 x 846 km, 71.0° (Epoch: 21 October)

Event Time Altitude Azimuth Distance (km) Brightness Sun altitude
Exits shadow 00:36:09 27° 108° (ESE) 1,555 3.8 -35.9°
Maximum altitude 00:36:27 27° 102° (ESE) 1,551 3.9 -35.9°
Drops below altitude 10° 00:41:08 10° 46° (NE) 2,465 5.3 -35.0°
Sets 00:43:54 0° 35° (NE) 3,404 6.1 -34.5°
